TimePDT,TemperatureF,Dew PointF,Humidity,Sea Level PressureIn,VisibilityMPH,Wind Direction,Wind SpeedMPH,Gust SpeedMPH,PrecipitationIn,Events,Conditions,WindDirDegrees,DateUTC
12:56 AM,39.9,36.0,86,30.13,10.0,Calm,Calm,-,N/A,,Clear,0,2013-03-22 07:56:00
1:56 AM,39.9,36.0,86,30.14,10.0,Calm,Calm,-,N/A,,Clear,0,2013-03-22 08:56:00
2:56 AM,39.9,35.1,83,30.14,10.0,NW,3.5,-,N/A,,Clear,320,2013-03-22 09:56:00
3:56 AM,37.9,34.0,86,30.13,10.0,Calm,Calm,-,N/A,,Clear,0,2013-03-22 10:56:00
4:56 AM,37.0,33.1,86,30.13,10.0,Calm,Calm,-,N/A,,Clear,0,2013-03-22 11:56:00
5:56 AM,36.0,32.0,86,30.14,10.0,Calm,Calm,-,N/A,,Clear,0,2013-03-22 12:56:00
6:56 AM,34.0,30.9,89,30.15,10.0,Calm,Calm,-,N/A,,Clear,0,2013-03-22 13:56:00
7:56 AM,34.0,30.9,89,30.17,10.0,Calm,Calm,-,N/A,,Clear,0,2013-03-22 14:56:00
8:56 AM,39.9,33.1,77,30.17,10.0,Calm,Calm,-,N/A,,Clear,0,2013-03-22 15:56:00
9:56 AM,44.1,33.1,65,30.18,10.0,Calm,Calm,-,N/A,,Clear,0,2013-03-22 16:56:00
10:56 AM,50.0,30.0,46,30.17,10.0,Calm,Calm,-,N/A,,Clear,0,2013-03-22 17:56:00
11:56 AM,55.0,27.0,34,30.15,10.0,Variable,3.5,-,N/A,,Clear,0,2013-03-22 18:56:00
12:56 PM,59.0,28.9,32,30.13,10.0,NNE,4.6,-,N/A,,Clear,20,2013-03-22 19:56:00
1:56 PM,62.1,28.9,29,30.12,10.0,NNW,9.2,-,N/A,,Clear,340,2013-03-22 20:56:00
2:56 PM,62.1,28.9,29,30.10,10.0,WNW,9.2,-,N/A,,Clear,300,2013-03-22 21:56:00
3:56 PM,62.1,30.0,30,30.09,10.0,WNW,9.2,-,N/A,,Clear,300,2013-03-22 22:56:00
4:56 PM,61.0,30.0,31,30.09,10.0,NW,9.2,-,N/A,,Clear,310,2013-03-22 23:56:00
5:56 PM,59.0,30.9,35,30.09,10.0,NW,4.6,-,N/A,,Clear,310,2013-03-23 00:56:00
6:56 PM,55.9,33.1,42,30.09,10.0,NE,5.8,-,N/A,,Clear,50,2013-03-23 01:56:00
7:56 PM,50.0,35.1,57,30.11,10.0,Calm,Calm,-,N/A,,Clear,0,2013-03-23 02:56:00
8:56 PM,48.9,35.1,59,30.12,10.0,Calm,Calm,-,N/A,,Clear,0,2013-03-23 03:56:00
9:56 PM,46.0,36.0,68,30.14,10.0,Calm,Calm,-,N/A,,Clear,0,2013-03-23 04:56:00
10:56 PM,44.1,36.0,73,30.14,10.0,Calm,Calm,-,N/A,,Clear,0,2013-03-23 05:56:00
11:56 PM,43.0,36.0,76,30.14,10.0,Calm,Calm,-,N/A,,Clear,0,2013-03-23 06:56:00